Location: Bijele Vode
(45.2833°N, 16.2000°E)
Time: 22:47:00
(UTC+00:00)

Lacrosse 5 rocket - Pass Details

Date: 23 January 2021
Orbit: 465 x 630 km, 57.0° (Epoch: 06 March)

Event Time Altitude Azimuth Distance (km) Brightness Sun altitude
Exits shadow 03:25:03 20° 77° (ENE) 1,221 3.7 -31.4°
Drops below altitude 10° 03:26:31 10° 92° (E) 1,699 4.7 -31.2°
Sets 03:28:48 0° 103° (ESE) 2,555 5.8 -30.8°
